Flag for Lebanon Weather past 2 weeks in Sidon, Lebanon

Now
57 °F

Passing clouds.


Feels Like: 57 °F
Forecast: 60 / 67 °F
Wind: 5 mph from Southeast

Location: Beirut Airport

Current Time: Jan 28, 2015 at 9:08:50 PM

Latest Report: Jan 28, 2015 at 8:00 PM


Visibility: 5 mi

Pressure: 30.01 "Hg

Humidity: 59%

Dew point: 43 °F

Location of SidonLocation

Historic Weather in Sidon — Graph

°F

Sidon temperature yesterday

Maximum temperature yesterday: 64 °F (at 11:00 AM)
Minimum temperature yesterday: 55 °F (at 8:00 AM)
Average temperature yesterday: 60 °F

Past Weeks' High & Low Weather Summary

 TemperatureHumidityPressure
High72 °F (Jan 24, 2:00 PM)88% (Jan 15, 3:00 AM)30.36 "Hg (Jan 15, 3:00 AM)
Low48 °F (Jan 14, 4:00 AM)19% (Jan 26, 12:00 PM)29.86 "Hg (Jan 28, 5:00 AM)
Average59 °F59%30.14 "Hg
* Reported Jan 13 8:00 PM — Jan 28 8:00 PM, Sidon, Weather by CustomWeather, © 2014

Note: Actual official high and low records may vary slightly from our data, if they occured in-between our weather recording intervals... More about our weather records

Advertising

Sidon weather history for previous 24 hours

 ConditionsComfort  
Time TempWeatherWind HumidityBarometerVisibility
8:00 PM
Jan 28
57 °FPassing clouds.5 mph59%30.01 "Hg5 mi
7:00 PM59 °FPassing clouds.5 mph59%30.01 "Hg5 mi
6:00 PM61 °FPassing clouds.2 mph55%29.98 "Hg5 mi
5:00 PM61 °FPartly sunny.3 mph55%29.98 "Hg5 mi
4:00 PM63 °FPartly sunny.5 mph56%29.98 "Hg5 mi
3:00 PM63 °FPartly sunny.5 mph52%29.95 "Hg5 mi
2:00 PM64 °FPartly sunny.5 mph49%29.95 "Hg5 mi
1:00 PM64 °FPartly sunny.8 mph49%29.95 "Hg5 mi
12:00 PM63 °FPartly sunny.13 mph56%29.98 "Hg5 mi
10:00 AM63 °FPartly sunny.14 mph68%29.98 "Hg5 mi
9:00 AM59 °FOvercast.2 mph55%29.98 "Hg5 mi
8:00 AM57 °FPassing clouds.5 mph44%29.92 "Hg5 mi
7:00 AM55 °FSunny.5 mph47%29.92 "Hg10 mi
6:00 AM54 °FClear.3 mph47%29.89 "Hg10 mi
5:00 AM54 °FClear.3 mph47%29.86 "Hg10 mi
4:00 AM55 °FClear.5 mph44%29.89 "Hg10 mi
3:00 AM55 °FClear.5 mph44%29.89 "Hg10 mi
2:00 AM55 °FPassing clouds.2 mph47%29.92 "HgN/A
1:00 AM57 °FPassing clouds.3 mph48%29.92 "HgN/A
12:00 AM59 °FPassing clouds.2 mph42%29.95 "HgN/A
11:00 PM
Jan 27
59 °FPassing clouds.3 mph42%29.98 "HgN/A
10:00 PM59 °FPassing clouds.5 mph45%29.98 "HgN/A
9:00 PM61 °FPassing clouds.2 mph45%30.01 "HgN/A
Weather by CustomWeather, © 2014

See weather overviewHow to use our weather pages